|
|
Asteroid 2011 WB
(Preview)
Orbital elements:
2011 WB Earth MOID = 0.0339 AU
Epoch 2011 Aug. 27.0 TT = JDT 2455800.5 MPC
M 334.67764 (2000.0) P Q
n 0.42823134 Peri. 334.62916 +0.88600045 -0.45581034
a 1.7432129 Node 52.75351 +0.44155989 +0.77339002
e 0.4205766 Incl. 6.13609 +0.14152052 +0.44057327
P 2.30 H 26.0 G 0....
|
Blobrana
|
0
|
|
|
|
|
Asteroid 2011 VF9
(Preview)
Orbital elements:
2011 VF9 Earth MOID = 0.2136 AU
Epoch 2011 Aug. 27.0 TT = JDT 2455800.5 MPC
M 319.21737 (2000.0) P Q
n 0.42417730 Peri. 13.72527 +0.41571048 -0.85466832
a 1.7543023 Node 52.65421 +0.79316773 +0.17335106
e 0.3177996 Incl. 23.02995 +0.44505027 +0.48937867
P 2.32 H 22.9 G 0...
|
Blobrana
|
0
|
|
|
|
|
Asteroid 2011 VG9
(Preview)
Orbital elements:
2011 VG9 Earth MOID = 0.0070 AU
Epoch 2011 Aug. 27.0 TT = JDT 2455800.5 MPC
M 355.69463 (2000.0) P Q
n 0.28241970 Peri. 65.40764 +0.52571689 +0.85045464
a 2.3007674 Node 236.32171 -0.78835624 +0.47884950
e 0.7773778 Incl. 1.28573 -0.31955624 +0.21778444
P 3.49 H 22.1 G 0...
|
Blobrana
|
0
|
|
|
|
|
Asteroid 2011 CE50
(Preview)
Orbital elements: 2011 CE50 Earth MOID = 0.1527 AU Epoch 2011 Feb. 8.0 TT = JDT 2455600.5 MPC M 223.09395 (2000.0) P Q n 0.97071685 Peri. 151.01444 +0.35176068 +0.92073459 a 1.0102007 Node 138.92741 -0.90075047 +0.38202461 e 0.1885695 Incl. 14.89239 -0.25478033 -0.07940414 P 1.02 H 23.2 G 0.15 U 8...
|
Blobrana
|
1
|
|
|
|
|
Asteroid 2008 VS4
(Preview)
The 6 metre wide asteroid 2008 VS4 will pass the Earth-Moon system on the 16th November, 2011. See more The Lunar Distance (LD), the distance between Earth and the Moon, equals 384,401 km, (or 0.00256 AU).
|
Blobrana
|
0
|
|
|
|
|
Asteroid 2008 QY
(Preview)
The 540 - 1200 metre wide asteroid 2008 QY will make a close pass (59.6 lunar distances, 0.1531 AU), travelling at 22.29 km/second, to the Earth-Moon system on the 14th February, 2012 @ 22:07 UT ±00:01. See more The Lunar Dis...
|
Blobrana
|
0
|
|
|
|
|
Asteroid 2011 UT91
(Preview)
Orbital elements:
2011 UT91 Earth MOID = 0.0079 AU
Epoch 2011 Aug. 27.0 TT = JDT 2455800.5 MPC
M 281.18652 (2000.0) P Q
n 0.61585731 Peri. 247.10089 -0.45692857 -0.87000585
a 1.3681991 Node 231.41708 +0.87797445 -0.40770381
e 0.4134780 Incl. 13.70612 +0.14274855 -0.27724976
P 1.60 H 23....
|
Blobrana
|
1
|
|
|
|
|
Asteroid 2011 GD60
(Preview)
Orbital elements:
2011 GD60 Earth MOID = 0.0622 AU
Epoch 2011 Feb. 8.0 TT = JDT 2455600.5 MPC
M 198.13825 (2000.0) P Q
n 0.86369811 Peri. 210.76485 +0.78703034 +0.60923819
a 1.0920137 Node 111.38540 -0.54269242 +0.75851190
e 0.1664290 Incl. 5.98047 -0.29337380 +0.23127586
P 1.14 H 21.7 G...
|
Blobrana
|
3
|
|
|
|
|
Asteroid 2006 WN3
(Preview)
Orbital elements:
2006 WN3 Earth MOID = 0.0769 AU
Epoch 2011 Aug. 27.0 TT = JDT 2455800.5 MPC
M 283.79217 (2000.0) P Q
n 0.40662569 Peri. 294.57358 -0.91649373 -0.04451207
a 1.8044278 Node 245.06342 +0.12880317 -0.97370441
e 0.5031545 Incl. 26.00429 -0.37874661 -0.22342426
P 2.42 H 19.8...
|
Blobrana
|
0
|
|
|
|
|
Asteroid 2006 CJ
(Preview)
The 250 - 560 metre wide asteroid 2006 CJ will make a close pass (17.6 lunar distances, 0.0453 AU), travelling at 21.89 km/second, to the Earth-Moon system on the 1st February, 2012 @ 08:23 UT ±00:01. See more The Lunar Dista...
|
Blobrana
|
0
|
|
|
|
|
Asteroid 2010 WU8
(Preview)
The 39 - 86 metre wide asteroid 2010 WU8 will make a close pass (30.2 lunar distances, 0.0776 AU), travelling at 7.91 km/second, to the Earth-Moon system on the 30th January, 2012 @ 17:36 UT ±00:34. See more The Lunar Distan...
|
Blobrana
|
0
|
|
|
|
|
Asteroid 2007 MR
(Preview)
The 110 - 250 metre wide asteroid 2007 MR will make a close pass (77.6 lunar distances, 0.1995 AU), travelling at 5.93 km/second, to the Earth-Moon system on the 13th December, 2010 @ 10:32 UT. See more The Lunar Distance (LD...
|
Blobrana
|
2
|
|
|
|
|
Asteroid 2011 FC29
(Preview)
Orbital elements:
2011 FC29 Earth MOID = 0.1144 AU
Epoch 2011 Feb. 8.0 TT = JDT 2455600.5 MPC
M 116.65515 (2000.0) P Q
n 0.83117264 Peri. 357.22477 +0.94526359 -0.32336055
a 1.1203195 Node 21.79805 +0.30160522 +0.81463124
e 0.4425358 Incl. 6.76729 +0.12454328 +0.48147055
P 1.19 H 20.9 G 0...
|
Blobrana
|
1
|
|
|
|
|
Asteroid 2008 EP6
(Preview)
The 360 - 790 metre wide asteroid 2008 EP6 will make a close pass (23.6 lunar distances, 0.0605 AU), travelling at 12.72 km/second, to the Earth-Moon system on the 1st February, 2012 @ 00:08 UT ±00:01. See more The Lunar Dis...
|
Blobrana
|
0
|
|
|
|
|
Asteroid 2011 VW5
(Preview)
Orbital elements:
2011 VW5 Earth MOID = 0.1116 AU
Epoch 2011 Aug. 27.0 TT = JDT 2455800.5 MPC
M 354.08707 (2000.0) P Q
n 0.19867019 Peri. 20.22037 +0.91964290 -0.39243178
a 2.9088026 Node 3.02954 +0.30593729 +0.69030875
e 0.6236454 Incl. 17.55898 +0.24629110 +0.60784137
P 4.96 H 18.4 G 0....
|
Blobrana
|
0
|
|
|